Home   Weather   Greenville   Past weeks

Flag for USA Past Weather in Greenville, South Carolina, USA — Yesterday and Last 2 Weeks

Now
79 °F

Passing clouds.


Feels Like: 79 °F
Forecast: 58 / 82 °F
Wind: 7 mph from Southwest

Location: Greenville Downtown Airport

Current Time: Sep 29, 2016 at 7:55:02 PM

Latest Report: Sep 29, 2016 at 6:53 PM


Visibility: 10 mi

Pressure: 29.93 "Hg

Humidity: 39%

Dew Point: 52 °F

Location of GreenvilleLocation

Past Weather in Greenville — Graph

°F

Greenville Temperature Yesterday

Maximum temperature yesterday: 86 °F (at 3:53 PM)
Minimum temperature yesterday: 67 °F (at 3:53 AM)
Average temperature yesterday: 75 °F

High & Low Weather Summary for the Past Weeks

 TemperatureHumidityPressure
High94 °F (Sep 24, 1:53 PM)93% (Sep 27, 12:01 AM)30.24 "Hg (Sep 27, 12:01 AM)
Low59 °F (Sep 29, 5:53 AM)27% (Sep 24, 4:53 PM)29.84 "Hg (Sep 27, 3:53 PM)
Average78 °F63%30.04 "Hg
* Reported Sep 14 6:53 PM — Sep 29 6:53 PM, Greenville, Weather by CustomWeather, © 2016

Note: Actual official high and low records may vary slightly from our data, if they occured in-between our weather recording intervals... More about our weather records

Advertising

Greenville Weather History for the Previous 24 Hours

Scroll right to see more
 ConditionsComfort  
Time TempWeatherWind HumidityBarometerVisibility
6:53 PM
Thu, Sep 29
79 °FPassing clouds.7 mph39%29.93 "Hg10 mi
5:53 PM80 °FScattered clouds.8 mph36%29.92 "Hg10 mi
4:53 PM83 °FPassing clouds.10 mph34%29.91 "Hg10 mi
3:53 PM84 °FPassing clouds.14 mph32%29.91 "Hg10 mi
2:53 PM84 °FPartly sunny.12 mph35%29.92 "Hg10 mi
1:53 PM82 °FSunny.9 mph35%29.93 "Hg10 mi
12:53 PM81 °FSunny.7 mph39%29.94 "Hg10 mi
11:53 AM79 °FSunny.5 mph48%29.96 "Hg10 mi
10:53 AM76 °FPassing clouds.6 mph54%29.95 "Hg10 mi
9:53 AM72 °FPassing clouds.6 mph61%29.94 "Hg10 mi
8:53 AM68 °FPartly sunny.8 mph65%29.93 "Hg10 mi
7:53 AM62 °FSunny.8 mph70%29.92 "Hg10 mi
6:53 AM61 °FClear.7 mph70%29.90 "Hg10 mi
5:53 AM59 °FClear.10 mph78%29.89 "Hg10 mi
4:53 AM61 °FClear.No wind72%29.88 "Hg10 mi
3:53 AM62 °FClear.No wind73%29.88 "Hg10 mi
2:53 AM63 °FClear.No wind70%29.88 "Hg10 mi
1:53 AM67 °FClear.No wind57%29.89 "Hg10 mi
12:53 AM67 °FClear.No wind57%29.90 "Hg10 mi
11:53 PM
Wed, Sep 28
69 °FClear.No wind53%29.90 "Hg10 mi
10:53 PM73 °FClear.No wind43%29.91 "Hg10 mi
9:53 PM74 °FClear.3 mph41%29.91 "Hg10 mi
8:53 PM76 °FClear.6 mph43%29.90 "Hg10 mi
7:53 PM79 °FClear.6 mph41%29.88 "Hg10 mi
Weather by CustomWeather, © 2016

See weather overviewHow to use our weather pages